Time,TemperatureF,DewpointF,PressureIn,WindDirection,WindDirectionDegrees,WindSpeedMPH,WindSpeedGustMPH,Humidity,HourlyPrecipIn,Conditions,Clouds,dailyrainin,SoftwareType,DateUTC
2013-05-14 00:01:00,47.0,35.4,30.18,NE,34,0.0,-999.0,64,0.00,,,0.00,Wunderground v.1.15,2013-05-14 04:01:00,
2013-05-14 00:02:00,47.0,35.8,30.18,NE,34,0.0,-999.0,65,0.00,,,0.00,Wunderground v.1.15,2013-05-14 04:02:00,
2013-05-14 00:04:00,47.0,35.8,30.17,NE,34,0.0,-999.0,65,0.00,,,0.00,Wunderground v.1.15,2013-05-14 04:04:00,
2013-05-14 00:06:00,46.9,36.1,30.17,NE,34,0.0,-999.0,66,0.00,,,0.00,Wunderground v.1.15,2013-05-14 04:06:00,
2013-05-14 00:12:00,46.5,35.7,30.18,NE,34,0.0,-999.0,66,0.00,,,0.00,Wunderground v.1.15,2013-05-14 04:12:00,
2013-05-14 00:13:00,46.5,35.7,30.18,NE,34,0.0,-999.0,66,0.00,,,0.00,Wunderground v.1.15,2013-05-14 04:13:00,
2013-05-14 00:19:00,46.3,36.3,30.18,NE,34,0.0,-999.0,68,0.00,,,0.00,Wunderground v.1.15,2013-05-14 04:19:00,
2013-05-14 00:24:00,46.2,35.1,30.18,NE,34,0.0,-999.0,65,0.00,,,0.00,Wunderground v.1.15,2013-05-14 04:24:00,
2013-05-14 00:30:00,46.2,36.6,30.18,NE,35,0.0,-999.0,69,0.00,,,0.00,Wunderground v.1.15,2013-05-14 04:30:00,
2013-05-14 00:36:00,46.1,35.7,30.18,NE,35,0.0,-999.0,67,0.00,,,0.00,Wunderground v.1.15,2013-05-14 04:36:00,
2013-05-14 00:42:00,46.1,35.7,30.18,NE,41,0.0,-999.0,67,0.00,,,0.00,Wunderground v.1.15,2013-05-14 04:42:00,
2013-05-14 00:47:00,46.0,36.0,30.18,NE,41,0.0,-999.0,68,0.00,,,0.00,Wunderground v.1.15,2013-05-14 04:47:00,
2013-05-14 00:53:00,45.8,35.8,30.18,NE,41,0.0,-999.0,68,0.00,,,0.00,Wunderground v.1.15,2013-05-14 04:53:00,
2013-05-14 00:59:00,45.5,35.2,30.18,NE,41,0.0,-999.0,67,0.00,,,0.00,Wunderground v.1.15,2013-05-14 04:59:00,
2013-05-14 01:05:00,45.2,36.0,30.18,NE,41,0.0,-999.0,70,0.00,,,0.00,Wunderground v.1.15,2013-05-14 05:05:00,
2013-05-14 01:10:00,45.0,35.8,30.18,NE,41,0.0,-999.0,70,0.00,,,0.00,Wunderground v.1.15,2013-05-14 05:10:00,
2013-05-14 01:16:00,44.8,36.3,30.18,NE,41,0.0,-999.0,72,0.00,,,0.00,Wunderground v.1.15,2013-05-14 05:16:00,
2013-05-14 01:22:00,44.5,36.0,30.19,NE,41,0.0,-999.0,72,0.00,,,0.00,Wunderground v.1.15,2013-05-14 05:22:00,
2013-05-14 01:28:00,44.3,37.2,30.18,NE,41,0.0,-999.0,76,0.00,,,0.00,Wunderground v.1.15,2013-05-14 05:28:00,
2013-05-14 01:34:00,44.1,36.7,30.18,NE,41,0.0,-999.0,75,0.00,,,0.00,Wunderground v.1.15,2013-05-14 05:34:00,
2013-05-14 01:40:00,44.1,36.7,30.18,NE,46,0.0,-999.0,75,0.00,,,0.00,Wunderground v.1.15,2013-05-14 05:40:00,
2013-05-14 01:46:00,43.9,36.5,30.18,NE,46,0.0,-999.0,75,0.00,,,0.00,Wunderground v.1.15,2013-05-14 05:46:00,
2013-05-14 01:51:00,43.8,36.7,30.18,NE,46,0.0,-999.0,76,0.00,,,0.00,Wunderground v.1.15,2013-05-14 05:51:00,
2013-05-14 01:57:00,43.1,36.4,30.18,NNE,28,0.0,-999.0,77,0.00,,,0.00,Wunderground v.1.15,2013-05-14 05:57:00,
2013-05-14 02:03:00,42.7,36.3,30.18,NNE,28,0.0,-999.0,78,0.00,,,0.00,Wunderground v.1.15,2013-05-14 06:03:00,
2013-05-14 02:09:00,42.4,37.0,30.18,NNE,28,0.0,-999.0,81,0.00,,,0.00,Wunderground v.1.15,2013-05-14 06:09:00,
2013-05-14 02:14:00,42.3,36.9,30.18,NNE,28,0.0,-999.0,81,0.00,,,0.00,Wunderground v.1.15,2013-05-14 06:14:00,
2013-05-14 02:20:00,42.2,37.1,30.18,ENE,71,0.0,-999.0,82,0.00,,,0.00,Wunderground v.1.15,2013-05-14 06:20:00,
2013-05-14 02:26:00,41.9,35.9,30.18,ENE,71,0.0,-999.0,79,0.00,,,0.00,Wunderground v.1.15,2013-05-14 06:26:00,
2013-05-14 02:32:00,41.8,36.4,30.18,ENE,71,0.0,-999.0,81,0.00,,,0.00,Wunderground v.1.15,2013-05-14 06:32:00,
2013-05-14 02:38:00,41.6,36.2,30.18,ENE,71,0.0,-999.0,81,0.00,,,0.00,Wunderground v.1.15,2013-05-14 06:38:00,
2013-05-14 02:43:00,41.3,36.2,30.18,ENE,71,0.0,-999.0,82,0.00,,,0.00,Wunderground v.1.15,2013-05-14 06:43:00,
2013-05-14 02:49:00,41.2,36.4,30.18,ENE,71,0.0,-999.0,83,0.00,,,0.00,Wunderground v.1.15,2013-05-14 06:49:00,
2013-05-14 02:55:00,41.2,36.4,30.19,ENE,71,0.0,-999.0,83,0.00,,,0.00,Wunderground v.1.15,2013-05-14 06:55:00,
2013-05-14 03:00:00,41.0,36.5,30.19,ENE,71,0.0,-999.0,84,0.00,,,0.00,Wunderground v.1.15,2013-05-14 07:00:00,
2013-05-14 03:06:00,41.0,36.2,30.19,ENE,71,0.0,-999.0,83,0.00,,,0.00,Wunderground v.1.15,2013-05-14 07:06:00,
2013-05-14 03:12:00,41.0,36.2,30.19,ENE,71,0.0,-999.0,83,0.00,,,0.00,Wunderground v.1.15,2013-05-14 07:12:00,
2013-05-14 03:18:00,40.9,36.4,30.19,ENE,71,0.0,-999.0,84,0.00,,,0.00,Wunderground v.1.15,2013-05-14 07:18:00,
2013-05-14 03:23:00,40.7,35.9,30.19,ENE,71,0.0,-999.0,83,0.00,,,0.00,Wunderground v.1.15,2013-05-14 07:23:00,
2013-05-14 03:29:00,40.5,36.0,30.19,ENE,71,0.0,-999.0,84,0.00,,,0.00,Wunderground v.1.15,2013-05-14 07:29:00,
2013-05-14 03:35:00,40.5,36.0,30.20,ENE,71,0.0,-999.0,84,0.00,,,0.00,Wunderground v.1.15,2013-05-14 07:35:00,
2013-05-14 03:40:00,40.5,36.3,30.20,ENE,71,0.0,-999.0,85,0.00,,,0.00,Wunderground v.1.15,2013-05-14 07:40:00,
2013-05-14 03:46:00,40.5,36.6,30.20,ENE,71,0.0,-999.0,86,0.00,,,0.00,Wunderground v.1.15,2013-05-14 07:46:00,
2013-05-14 03:52:00,40.5,36.3,30.20,ENE,71,0.0,-999.0,85,0.00,,,0.00,Wunderground v.1.15,2013-05-14 07:52:00,
2013-05-14 03:58:00,40.2,36.1,30.20,ENE,71,0.0,-999.0,85,0.00,,,0.00,Wunderground v.1.15,2013-05-14 07:58:00,
2013-05-14 04:03:00,40.0,36.2,30.20,ENE,71,0.0,-999.0,86,0.00,,,0.00,Wunderground v.1.15,2013-05-14 08:03:00,
2013-05-14 04:09:00,39.9,36.1,30.20,ENE,71,0.0,-999.0,86,0.00,,,0.00,Wunderground v.1.15,2013-05-14 08:09:00,
2013-05-14 04:15:00,39.7,35.9,30.20,ENE,71,0.0,-999.0,86,0.00,,,0.00,Wunderground v.1.15,2013-05-14 08:15:00,
2013-05-14 04:21:00,39.6,35.8,30.20,ENE,71,0.0,-999.0,86,0.00,,,0.00,Wunderground v.1.15,2013-05-14 08:21:00,
2013-05-14 04:26:00,39.4,35.9,30.20,ENE,71,0.0,-999.0,87,0.00,,,0.00,Wunderground v.1.15,2013-05-14 08:26:00,
2013-05-14 04:32:00,39.3,36.0,30.20,ENE,71,0.0,-999.0,88,0.00,,,0.00,Wunderground v.1.15,2013-05-14 08:32:00,
2013-05-14 04:38:00,39.2,36.2,30.20,ENE,71,0.0,-999.0,89,0.00,,,0.00,Wunderground v.1.15,2013-05-14 08:38:00,
2013-05-14 04:44:00,39.1,36.1,30.20,ENE,71,0.0,-999.0,89,0.00,,,0.00,Wunderground v.1.15,2013-05-14 08:44:00,
2013-05-14 04:50:00,39.1,36.4,30.20,ENE,71,0.0,-999.0,90,0.00,,,0.00,Wunderground v.1.15,2013-05-14 08:50:00,
2013-05-14 04:56:00,39.0,36.3,30.20,ENE,71,0.0,-999.0,90,0.00,,,0.00,Wunderground v.1.15,2013-05-14 08:56:00,
2013-05-14 05:02:00,39.1,36.4,30.20,ENE,71,0.0,-999.0,90,0.00,,,0.00,Wunderground v.1.15,2013-05-14 09:02:00,
2013-05-14 05:07:00,39.1,36.1,30.20,ENE,71,0.0,-999.0,89,0.00,,,0.00,Wunderground v.1.15,2013-05-14 09:07:00,
2013-05-14 05:13:00,38.9,35.9,30.21,ENE,71,0.0,-999.0,89,0.00,,,0.00,Wunderground v.1.15,2013-05-14 09:13:00,
2013-05-14 05:19:00,38.8,35.8,30.21,ENE,71,0.0,-999.0,89,0.00,,,0.00,Wunderground v.1.15,2013-05-14 09:19:00,
2013-05-14 05:25:00,38.4,35.4,30.21,ENE,71,0.0,-999.0,89,0.00,,,0.00,Wunderground v.1.15,2013-05-14 09:25:00,
2013-05-14 05:30:00,38.5,35.8,30.21,ENE,71,0.0,-999.0,90,0.00,,,0.00,Wunderground v.1.15,2013-05-14 09:30:00,
2013-05-14 05:36:00,38.7,36.3,30.21,ENE,71,0.0,-999.0,91,0.00,,,0.00,Wunderground v.1.15,2013-05-14 09:36:00,
2013-05-14 05:42:00,38.7,36.3,30.21,ENE,71,0.0,-999.0,91,0.00,,,0.00,Wunderground v.1.15,2013-05-14 09:42:00,
2013-05-14 05:48:00,38.4,35.7,30.21,ENE,71,0.0,-999.0,90,0.00,,,0.00,Wunderground v.1.15,2013-05-14 09:48:00,
2013-05-14 05:54:00,38.3,35.9,30.21,ENE,71,0.0,-999.0,91,0.00,,,0.00,Wunderground v.1.15,2013-05-14 09:54:00,
2013-05-14 06:00:00,38.3,35.9,30.21,ENE,71,0.0,-999.0,91,0.00,,,0.00,Wunderground v.1.15,2013-05-14 10:00:00,
2013-05-14 06:06:00,38.4,36.0,30.22,ENE,71,0.0,-999.0,91,0.00,,,0.00,Wunderground v.1.15,2013-05-14 10:06:00,
2013-05-14 06:11:00,38.3,35.9,30.22,ENE,71,0.0,-999.0,91,0.00,,,0.00,Wunderground v.1.15,2013-05-14 10:11:00,
2013-05-14 06:17:00,38.3,35.9,30.22,ENE,71,0.0,-999.0,91,0.00,,,0.00,Wunderground v.1.15,2013-05-14 10:17:00,
2013-05-14 06:23:00,38.4,36.0,30.22,ENE,71,0.0,-999.0,91,0.00,,,0.00,Wunderground v.1.15,2013-05-14 10:23:00,
2013-05-14 06:29:00,38.3,35.9,30.22,ENE,71,0.0,-999.0,91,0.00,,,0.00,Wunderground v.1.15,2013-05-14 10:29:00,
2013-05-14 06:34:00,38.3,35.9,30.23,ENE,71,0.0,-999.0,91,0.00,,,0.00,Wunderground v.1.15,2013-05-14 10:34:00,
2013-05-14 06:40:00,38.3,35.9,30.23,ENE,71,0.0,-999.0,91,0.00,,,0.00,Wunderground v.1.15,2013-05-14 10:40:00,
2013-05-14 06:46:00,38.5,36.4,30.24,ENE,71,0.0,-999.0,92,0.00,,,0.00,Wunderground v.1.15,2013-05-14 10:46:00,
2013-05-14 06:52:00,38.6,36.2,30.24,ENE,71,0.0,-999.0,91,0.00,,,0.00,Wunderground v.1.15,2013-05-14 10:52:00,
2013-05-14 06:58:00,38.8,36.4,30.24,ENE,71,0.0,-999.0,91,0.00,,,0.00,Wunderground v.1.15,2013-05-14 10:58:00,
2013-05-14 07:04:00,38.7,36.3,30.24,ENE,71,0.0,-999.0,91,0.00,,,0.00,Wunderground v.1.15,2013-05-14 11:04:00,
2013-05-14 07:10:00,39.1,37.0,30.24,ENE,71,0.0,-999.0,92,0.00,,,0.00,Wunderground v.1.15,2013-05-14 11:10:00,
2013-05-14 07:15:00,39.9,37.8,30.24,ENE,71,0.0,-999.0,92,0.00,,,0.00,Wunderground v.1.15,2013-05-14 11:15:00,
2013-05-14 07:21:00,40.9,38.8,30.24,ENE,71,0.0,-999.0,92,0.00,,,0.00,Wunderground v.1.15,2013-05-14 11:21:00,
2013-05-14 07:27:00,41.9,39.2,30.24,ENE,71,0.0,-999.0,90,0.00,,,0.00,Wunderground v.1.15,2013-05-14 11:27:00,
2013-05-14 07:33:00,43.1,39.5,30.24,ENE,71,0.0,-999.0,87,0.00,,,0.00,Wunderground v.1.15,2013-05-14 11:33:00,
2013-05-14 07:38:00,44.0,39.8,30.24,ENE,71,0.0,-999.0,85,0.00,,,0.00,Wunderground v.1.15,2013-05-14 11:38:00,
2013-05-14 07:44:00,45.2,40.3,30.24,ENE,71,0.0,-999.0,83,0.00,,,0.00,Wunderground v.1.15,2013-05-14 11:44:00,
2013-05-14 07:50:00,46.7,40.9,30.24,ENE,71,0.0,-999.0,80,0.00,,,0.00,Wunderground v.1.15,2013-05-14 11:50:00,
2013-05-14 07:56:00,47.3,40.1,30.24,ENE,71,0.0,-999.0,76,0.00,,,0.00,Wunderground v.1.15,2013-05-14 11:56:00,
2013-05-14 08:01:00,47.6,40.4,30.24,ENE,71,0.0,-999.0,76,0.00,,,0.00,Wunderground v.1.15,2013-05-14 12:01:00,
2013-05-14 08:07:00,48.2,40.6,30.24,ENE,71,0.0,-999.0,75,0.00,,,0.00,Wunderground v.1.15,2013-05-14 12:07:00,
2013-05-14 08:13:00,48.9,40.6,30.24,ENE,71,0.0,-999.0,73,0.00,,,0.00,Wunderground v.1.15,2013-05-14 12:13:00,
2013-05-14 08:18:00,49.4,40.0,30.24,ENE,71,0.0,-999.0,70,0.00,,,0.00,Wunderground v.1.15,2013-05-14 12:18:00,
2013-05-14 08:24:00,50.1,39.6,30.24,ENE,71,0.0,-999.0,67,0.00,,,0.00,Wunderground v.1.15,2013-05-14 12:24:00,
2013-05-14 08:30:00,50.8,38.2,30.24,ENE,71,0.0,-999.0,62,0.00,,,0.00,Wunderground v.1.15,2013-05-14 12:30:00,
2013-05-14 08:36:00,51.9,40.1,30.24,NNW,329,0.0,-999.0,64,0.00,,,0.00,Wunderground v.1.15,2013-05-14 12:36:00,
2013-05-14 08:41:00,51.9,39.7,30.24,NNW,329,0.0,-999.0,63,0.00,,,0.00,Wunderground v.1.15,2013-05-14 12:41:00,
2013-05-14 08:47:00,52.1,39.1,30.24,NNW,329,0.0,-999.0,61,0.00,,,0.00,Wunderground v.1.15,2013-05-14 12:47:00,
2013-05-14 08:53:00,53.0,38.6,30.24,East,92,0.0,-999.0,58,0.00,,,0.00,Wunderground v.1.15,2013-05-14 12:53:00,
2013-05-14 08:59:00,54.1,39.2,30.24,ESE,111,0.0,-999.0,57,0.00,,,0.00,Wunderground v.1.15,2013-05-14 12:59:00,
2013-05-14 09:04:00,54.9,37.1,30.24,SE,125,1.0,-999.0,51,0.00,,,0.00,Wunderground v.1.15,2013-05-14 13:04:00,
2013-05-14 09:10:00,54.9,36.6,30.25,WSW,256,2.0,-999.0,50,0.00,,,0.00,Wunderground v.1.15,2013-05-14 13:10:00,
2013-05-14 09:16:00,54.5,35.7,30.24,West,281,2.0,-999.0,49,0.00,,,0.00,Wunderground v.1.15,2013-05-14 13:16:00,
2013-05-14 09:22:00,54.8,36.5,30.24,ESE,110,3.0,-999.0,50,0.00,,,0.00,Wunderground v.1.15,2013-05-14 13:22:00,
2013-05-14 09:28:00,55.7,35.8,30.25,ESE,118,2.0,-999.0,47,0.00,,,0.00,Wunderground v.1.15,2013-05-14 13:28:00,
2013-05-14 09:34:00,55.9,35.4,30.25,SSE,161,2.0,-999.0,46,0.00,,,0.00,Wunderground v.1.15,2013-05-14 13:34:00,
2013-05-14 09:40:00,55.9,35.4,30.25,SW,214,2.0,-999.0,46,0.00,,,0.00,Wunderground v.1.15,2013-05-14 13:40:00,
2013-05-14 09:45:00,56.3,35.8,30.25,NE,51,1.0,-999.0,46,0.00,,,0.00,Wunderground v.1.15,2013-05-14 13:45:00,
2013-05-14 09:51:00,56.6,36.6,30.25,West,272,1.0,-999.0,47,0.00,,,0.00,Wunderground v.1.15,2013-05-14 13:51:00,
2013-05-14 09:57:00,56.3,36.8,30.25,WSW,248,2.0,-999.0,48,0.00,,,0.00,Wunderground v.1.15,2013-05-14 13:57:00,
2013-05-14 10:03:00,56.6,35.5,30.25,WNW,294,2.0,-999.0,45,0.00,,,0.00,Wunderground v.1.15,2013-05-14 14:03:00,
2013-05-14 10:08:00,56.8,35.1,30.25,West,269,2.0,-999.0,44,0.00,,,0.00,Wunderground v.1.15,2013-05-14 14:08:00,
2013-05-14 10:14:00,57.1,37.6,30.25,West,273,2.0,-999.0,48,0.00,,,0.00,Wunderground v.1.15,2013-05-14 14:14:00,
2013-05-14 10:20:00,57.5,34.6,30.25,WNW,300,3.0,-999.0,42,0.00,,,0.00,Wunderground v.1.15,2013-05-14 14:20:00,
2013-05-14 10:26:00,57.5,34.6,30.25,SW,234,2.0,-999.0,42,0.00,,,0.00,Wunderground v.1.15,2013-05-14 14:26:00,
2013-05-14 10:32:00,58.0,36.8,30.25,SSW,193,2.0,-999.0,45,0.00,,,0.00,Wunderground v.1.15,2013-05-14 14:32:00,
2013-05-14 10:38:00,58.5,37.2,30.25,WSW,252,2.0,-999.0,45,0.00,,,0.00,Wunderground v.1.15,2013-05-14 14:38:00,
2013-05-14 10:44:00,59.0,37.1,30.25,WNW,298,3.0,-999.0,44,0.00,,,0.00,Wunderground v.1.15,2013-05-14 14:44:00,
2013-05-14 10:49:00,59.1,34.8,30.25,WNW,292,3.0,-999.0,40,0.00,,,0.00,Wunderground v.1.15,2013-05-14 14:49:00,
2013-05-14 10:55:00,59.2,34.9,30.25,West,265,2.0,-999.0,40,0.00,,,0.00,Wunderground v.1.15,2013-05-14 14:55:00,
2013-05-14 11:01:00,59.4,35.7,30.25,WNW,288,3.0,-999.0,41,0.00,,,0.00,Wunderground v.1.15,2013-05-14 15:01:00,
2013-05-14 11:07:00,59.9,35.5,30.25,NW,316,3.0,-999.0,40,0.00,,,0.00,Wunderground v.1.15,2013-05-14 15:07:00,
2013-05-14 11:12:00,60.6,35.5,30.25,West,265,3.0,-999.0,39,0.00,,,0.00,Wunderground v.1.15,2013-05-14 15:12:00,
2013-05-14 11:18:00,60.7,36.8,30.25,WNW,294,2.0,-999.0,41,0.00,,,0.00,Wunderground v.1.15,2013-05-14 15:18:00,
2013-05-14 11:24:00,60.4,35.9,30.25,WNW,290,3.0,-999.0,40,0.00,,,0.00,Wunderground v.1.15,2013-05-14 15:24:00,
2013-05-14 11:30:00,61.3,36.1,30.24,NW,307,2.0,-999.0,39,0.00,,,0.00,Wunderground v.1.15,2013-05-14 15:30:00,
2013-05-14 11:36:00,60.8,36.9,30.24,WSW,248,4.0,-999.0,41,0.00,,,0.00,Wunderground v.1.15,2013-05-14 15:36:00,
2013-05-14 11:42:00,61.5,38.8,30.24,WSW,253,4.0,-999.0,43,0.00,,,0.00,Wunderground v.1.15,2013-05-14 15:42:00,
2013-05-14 11:48:00,61.7,37.1,30.24,West,263,3.0,-999.0,40,0.00,,,0.00,Wunderground v.1.15,2013-05-14 15:48:00,
2013-05-14 11:53:00,62.0,36.7,30.23,NNW,333,4.0,-999.0,39,0.00,,,0.00,Wunderground v.1.15,2013-05-14 15:53:00,
2013-05-14 11:59:00,62.4,37.1,30.23,SSE,162,3.0,-999.0,39,0.00,,,0.00,Wunderground v.1.15,2013-05-14 15:59:00,
2013-05-14 12:05:00,62.4,39.0,30.23,WSW,239,4.0,-999.0,42,0.00,,,0.00,Wunderground v.1.15,2013-05-14 16:05:00,
2013-05-14 12:11:00,62.2,37.6,30.22,West,275,3.0,-999.0,40,0.00,,,0.00,Wunderground v.1.15,2013-05-14 16:11:00,
2013-05-14 12:16:00,63.7,38.3,30.22,NW,310,3.0,-999.0,39,0.00,,,0.00,Wunderground v.1.15,2013-05-14 16:16:00,
2013-05-14 12:22:00,64.0,37.9,30.22,NW,309,3.0,-999.0,38,0.00,,,0.00,Wunderground v.1.15,2013-05-14 16:22:00,
2013-05-14 12:28:00,63.4,38.0,30.21,SSW,196,4.0,-999.0,39,0.00,,,0.00,Wunderground v.1.15,2013-05-14 16:28:00,
2013-05-14 12:34:00,64.0,40.4,30.20,SW,215,3.0,-999.0,42,0.00,,,0.00,Wunderground v.1.15,2013-05-14 16:34:00,
2013-05-14 12:39:00,64.4,38.9,30.21,SSW,197,3.0,-999.0,39,0.00,,,0.00,Wunderground v.1.15,2013-05-14 16:39:00,
2013-05-14 12:45:00,64.5,37.6,30.20,ESE,115,3.0,-999.0,37,0.00,,,0.00,Wunderground v.1.15,2013-05-14 16:45:00,
2013-05-14 12:51:00,65.1,38.2,30.20,WNW,283,3.0,-999.0,37,0.00,,,0.00,Wunderground v.1.15,2013-05-14 16:51:00,
2013-05-14 12:57:00,65.7,39.4,30.19,SW,221,3.0,-999.0,38,0.00,,,0.00,Wunderground v.1.15,2013-05-14 16:57:00,
2013-05-14 13:02:00,65.4,38.4,30.19,SSW,196,3.0,-999.0,37,0.00,,,0.00,Wunderground v.1.15,2013-05-14 17:02:00,
2013-05-14 13:08:00,65.1,37.5,30.19,NW,326,4.0,-999.0,36,0.00,,,0.00,Wunderground v.1.15,2013-05-14 17:08:00,
2013-05-14 13:14:00,65.7,35.0,30.20,WNW,297,6.0,-999.0,32,0.00,,,0.00,Wunderground v.1.15,2013-05-14 17:14:00,
2013-05-14 13:20:00,66.5,36.5,30.20,NW,324,4.0,-999.0,33,0.00,,,0.00,Wunderground v.1.15,2013-05-14 17:20:00,
2013-05-14 13:25:00,67.1,34.6,30.19,NE,40,4.0,-999.0,30,0.00,,,0.00,Wunderground v.1.15,2013-05-14 17:25:00,
2013-05-14 13:31:00,65.8,36.6,30.19,SW,227,5.0,-999.0,34,0.00,,,0.00,Wunderground v.1.15,2013-05-14 17:31:00,
2013-05-14 13:37:00,65.8,39.5,30.19,WSW,239,4.0,-999.0,38,0.00,,,0.00,Wunderground v.1.15,2013-05-14 17:37:00,
2013-05-14 13:43:00,66.8,39.0,30.19,SW,217,2.0,-999.0,36,0.00,,,0.00,Wunderground v.1.15,2013-05-14 17:43:00,
2013-05-14 13:48:00,67.0,36.1,30.18,SSW,202,4.0,-999.0,32,0.00,,,0.00,Wunderground v.1.15,2013-05-14 17:48:00,
2013-05-14 13:54:00,65.8,35.9,30.18,West,281,6.0,-999.0,33,0.00,,,0.00,Wunderground v.1.15,2013-05-14 17:54:00,
2013-05-14 14:00:00,66.9,36.1,30.17,NNW,333,5.0,-999.0,32,0.00,,,0.00,Wunderground v.1.15,2013-05-14 18:00:00,
2013-05-14 14:06:00,66.9,38.3,30.16,NW,316,5.0,-999.0,35,0.00,,,0.00,Wunderground v.1.15,2013-05-14 18:06:00,
2013-05-14 14:11:00,67.4,35.7,30.16,WNW,303,4.0,-999.0,31,0.00,,,0.00,Wunderground v.1.15,2013-05-14 18:11:00,
2013-05-14 14:17:00,67.9,36.9,30.16,WSW,245,4.0,-999.0,32,0.00,,,0.00,Wunderground v.1.15,2013-05-14 18:17:00,
2013-05-14 14:23:00,68.0,37.0,30.16,WNW,298,5.0,-999.0,32,0.00,,,0.00,Wunderground v.1.15,2013-05-14 18:23:00,
2013-05-14 14:29:00,67.9,36.1,30.16,West,274,5.0,-999.0,31,0.00,,,0.00,Wunderground v.1.15,2013-05-14 18:29:00,
2013-05-14 14:34:00,67.8,37.6,30.16,South,182,4.0,-999.0,33,0.00,,,0.00,Wunderground v.1.15,2013-05-14 18:34:00,
2013-05-14 14:40:00,68.3,38.1,30.16,West,272,4.0,-999.0,33,0.00,,,0.00,Wunderground v.1.15,2013-05-14 18:40:00,
2013-05-14 14:46:00,68.9,37.8,30.15,South,181,4.0,-999.0,32,0.00,,,0.00,Wunderground v.1.15,2013-05-14 18:46:00,
2013-05-14 14:52:00,68.8,37.7,30.15,SW,219,4.0,-999.0,32,0.00,,,0.00,Wunderground v.1.15,2013-05-14 18:52:00,
2013-05-14 14:58:00,68.7,36.8,30.15,NW,307,5.0,-999.0,31,0.00,,,0.00,Wunderground v.1.15,2013-05-14 18:58:00,
2013-05-14 15:04:00,69.2,38.1,30.14,WSW,254,5.0,-999.0,32,0.00,,,0.00,Wunderground v.1.15,2013-05-14 19:04:00,
2013-05-14 15:10:00,68.8,39.3,30.14,SSW,207,4.0,-999.0,34,0.00,,,0.00,Wunderground v.1.15,2013-05-14 19:10:00,
2013-05-14 15:15:00,68.3,40.3,30.13,West,267,5.0,-999.0,36,0.00,,,0.00,Wunderground v.1.15,2013-05-14 19:15:00,
2013-05-14 15:21:00,68.6,39.8,30.13,West,277,5.0,-999.0,35,0.00,,,0.00,Wunderground v.1.15,2013-05-14 19:21:00,
2013-05-14 15:27:00,68.5,39.8,30.13,WSW,244,5.0,-999.0,35,0.00,,,0.00,Wunderground v.1.15,2013-05-14 19:27:00,
2013-05-14 15:33:00,69.2,38.1,30.12,SSW,211,4.0,-999.0,32,0.00,,,0.00,Wunderground v.1.15,2013-05-14 19:33:00,
2013-05-14 15:38:00,69.2,38.9,30.12,WSW,248,4.0,-999.0,33,0.00,,,0.00,Wunderground v.1.15,2013-05-14 19:38:00,
2013-05-14 15:44:00,69.4,37.4,30.12,West,261,5.0,-999.0,31,0.00,,,0.00,Wunderground v.1.15,2013-05-14 19:44:00,
2013-05-14 15:50:00,69.0,38.7,30.11,NW,313,4.0,-999.0,33,0.00,,,0.00,Wunderground v.1.15,2013-05-14 19:50:00,
2013-05-14 15:56:00,69.3,38.2,30.11,WSW,258,5.0,-999.0,32,0.00,,,0.00,Wunderground v.1.15,2013-05-14 19:56:00,
2013-05-14 16:02:00,69.6,39.2,30.11,WNW,303,6.0,-999.0,33,0.00,,,0.00,Wunderground v.1.15,2013-05-14 20:02:00,
2013-05-14 16:08:00,69.8,38.6,30.10,SSW,196,4.0,-999.0,32,0.00,,,0.00,Wunderground v.1.15,2013-05-14 20:08:00,
2013-05-14 16:14:00,70.0,40.3,30.10,WNW,298,4.0,-999.0,34,0.00,,,0.00,Wunderground v.1.15,2013-05-14 20:14:00,
2013-05-14 16:19:00,70.1,38.9,30.10,West,271,5.0,-999.0,32,0.00,,,0.00,Wunderground v.1.15,2013-05-14 20:19:00,
2013-05-14 16:25:00,69.9,37.9,30.10,SSW,208,5.0,-999.0,31,0.00,,,0.00,Wunderground v.1.15,2013-05-14 20:25:00,
2013-05-14 16:31:00,70.4,39.9,30.10,WNW,284,4.0,-999.0,33,0.00,,,0.00,Wunderground v.1.15,2013-05-14 20:31:00,
2013-05-14 16:37:00,70.0,38.0,30.10,South,186,5.0,-999.0,31,0.00,,,0.00,Wunderground v.1.15,2013-05-14 20:37:00,
2013-05-14 16:42:00,69.7,39.3,30.10,West,262,5.0,-999.0,33,0.00,,,0.00,Wunderground v.1.15,2013-05-14 20:42:00,
2013-05-14 16:48:00,70.0,38.8,30.10,ENE,69,5.0,-999.0,32,0.00,,,0.00,Wunderground v.1.15,2013-05-14 20:48:00,
2013-05-14 16:54:00,70.3,39.0,30.10,WSW,240,4.0,-999.0,32,0.00,,,0.00,Wunderground v.1.15,2013-05-14 20:54:00,
2013-05-14 17:00:00,70.6,39.3,30.10,West,274,5.0,-999.0,32,0.00,,,0.00,Wunderground v.1.15,2013-05-14 21:00:00,
2013-05-14 17:06:00,70.4,39.1,30.10,SW,235,5.0,-999.0,32,0.00,,,0.00,Wunderground v.1.15,2013-05-14 21:06:00,
2013-05-14 17:12:00,70.6,40.1,30.10,SW,231,5.0,-999.0,33,0.00,,,0.00,Wunderground v.1.15,2013-05-14 21:12:00,
2013-05-14 17:18:00,70.9,39.6,30.10,West,259,4.0,-999.0,32,0.00,,,0.00,Wunderground v.1.15,2013-05-14 21:18:00,
2013-05-14 17:23:00,70.9,39.6,30.10,WNW,289,4.0,-999.0,32,0.00,,,0.00,Wunderground v.1.15,2013-05-14 21:23:00,
2013-05-14 17:29:00,70.1,38.9,30.10,West,281,5.0,-999.0,32,0.00,,,0.00,Wunderground v.1.15,2013-05-14 21:29:00,
2013-05-14 17:35:00,69.8,38.6,30.09,WSW,247,5.0,-999.0,32,0.00,,,0.00,Wunderground v.1.15,2013-05-14 21:35:00,
2013-05-14 17:41:00,70.1,39.6,30.10,West,272,5.0,-999.0,33,0.00,,,0.00,Wunderground v.1.15,2013-05-14 21:41:00,
2013-05-14 17:46:00,70.4,40.7,30.10,SW,236,5.0,-999.0,34,0.00,,,0.00,Wunderground v.1.15,2013-05-14 21:46:00,
2013-05-14 17:52:00,70.5,39.2,30.09,West,261,4.0,-999.0,32,0.00,,,0.00,Wunderground v.1.15,2013-05-14 21:52:00,
2013-05-14 17:58:00,70.4,39.1,30.09,West,270,5.0,-999.0,32,0.00,,,0.00,Wunderground v.1.15,2013-05-14 21:58:00,
2013-05-14 18:04:00,70.8,41.0,30.09,West,269,4.0,-999.0,34,0.00,,,0.00,Wunderground v.1.15,2013-05-14 22:04:00,
2013-05-14 18:10:00,71.0,40.4,30.09,West,273,4.0,-999.0,33,0.00,,,0.00,Wunderground v.1.15,2013-05-14 22:10:00,
2013-05-14 18:16:00,70.4,39.1,30.09,West,266,5.0,-999.0,32,0.00,,,0.00,Wunderground v.1.15,2013-05-14 22:16:00,
2013-05-14 18:22:00,70.7,40.2,30.09,NW,304,4.0,-999.0,33,0.00,,,0.00,Wunderground v.1.15,2013-05-14 22:22:00,
2013-05-14 18:27:00,69.9,39.5,30.09,WSW,245,5.0,-999.0,33,0.00,,,0.00,Wunderground v.1.15,2013-05-14 22:27:00,
2013-05-14 18:33:00,70.1,39.6,30.08,WSW,254,6.0,-999.0,33,0.00,,,0.00,Wunderground v.1.15,2013-05-14 22:33:00,
2013-05-14 18:39:00,70.2,40.5,30.08,West,268,5.0,-999.0,34,0.00,,,0.00,Wunderground v.1.15,2013-05-14 22:39:00,
2013-05-14 18:45:00,70.0,41.1,30.07,WSW,247,5.0,-999.0,35,0.00,,,0.00,Wunderground v.1.15,2013-05-14 22:45:00,
2013-05-14 18:50:00,69.7,40.1,30.07,SW,214,6.0,-999.0,34,0.00,,,0.00,Wunderground v.1.15,2013-05-14 22:50:00,
2013-05-14 18:56:00,69.4,39.8,30.07,WSW,244,7.0,-999.0,34,0.00,,,0.00,Wunderground v.1.15,2013-05-14 22:56:00,
2013-05-14 19:01:00,69.5,39.9,30.06,WNW,298,6.0,-999.0,34,0.00,,,0.00,Wunderground v.1.15,2013-05-14 23:01:00,
2013-05-14 19:07:00,69.7,40.8,30.06,NW,326,5.0,-999.0,35,0.00,,,0.00,Wunderground v.1.15,2013-05-14 23:07:00,
2013-05-14 19:12:00,69.7,40.8,30.06,NW,304,4.0,-999.0,35,0.00,,,0.00,Wunderground v.1.15,2013-05-14 23:12:00,
2013-05-14 19:18:00,69.5,40.6,30.07,SW,225,4.0,-999.0,35,0.00,,,0.00,Wunderground v.1.15,2013-05-14 23:18:00,
2013-05-14 19:24:00,69.2,40.4,30.06,WSW,238,4.0,-999.0,35,0.00,,,0.00,Wunderground v.1.15,2013-05-14 23:24:00,
2013-05-14 19:29:00,69.1,41.0,30.06,SSW,210,5.0,-999.0,36,0.00,,,0.00,Wunderground v.1.15,2013-05-14 23:29:00,
2013-05-14 19:35:00,68.7,40.7,30.06,South,175,5.0,-999.0,36,0.00,,,0.00,Wunderground v.1.15,2013-05-14 23:35:00,
2013-05-14 19:41:00,68.7,40.7,30.07,West,267,5.0,-999.0,36,0.00,,,0.00,Wunderground v.1.15,2013-05-14 23:41:00,
2013-05-14 19:47:00,68.6,40.6,30.07,West,273,3.0,-999.0,36,0.00,,,0.00,Wunderground v.1.15,2013-05-14 23:47:00,
2013-05-14 19:53:00,68.4,41.1,30.07,WSW,242,2.0,-999.0,37,0.00,,,0.00,Wunderground v.1.15,2013-05-14 23:53:00,
2013-05-14 19:58:00,68.0,40.7,30.07,SW,232,2.0,-999.0,37,0.00,,,0.00,Wunderground v.1.15,2013-05-14 23:58:00,
2013-05-14 20:04:00,67.7,41.2,30.07,SSW,196,3.0,-999.0,38,0.00,,,0.00,Wunderground v.1.15,2013-05-15 00:04:00,
2013-05-14 20:10:00,67.3,41.5,30.07,SW,225,2.0,-999.0,39,0.00,,,0.00,Wunderground v.1.15,2013-05-15 00:10:00,
2013-05-14 20:16:00,67.0,41.2,30.07,South,190,1.0,-999.0,39,0.00,,,0.00,Wunderground v.1.15,2013-05-15 00:16:00,
2013-05-14 20:22:00,66.5,42.1,30.07,WSW,248,2.0,-999.0,41,0.00,,,0.00,Wunderground v.1.15,2013-05-15 00:22:00,
2013-05-14 20:28:00,66.1,41.7,30.07,SW,224,2.0,-999.0,41,0.00,,,0.00,Wunderground v.1.15,2013-05-15 00:28:00,
2013-05-14 20:33:00,65.9,41.5,30.06,WSW,250,2.0,-999.0,41,0.00,,,0.00,Wunderground v.1.15,2013-05-15 00:33:00,
2013-05-14 20:39:00,65.7,42.0,30.06,SSW,213,2.0,-999.0,42,0.00,,,0.00,Wunderground v.1.15,2013-05-15 00:39:00,
2013-05-14 20:45:00,65.5,41.8,30.06,SW,219,1.0,-999.0,42,0.00,,,0.00,Wunderground v.1.15,2013-05-15 00:45:00,
2013-05-14 20:51:00,65.3,41.6,30.06,South,190,1.0,-999.0,42,0.00,,,0.00,Wunderground v.1.15,2013-05-15 00:51:00,
2013-05-14 20:56:00,64.8,42.4,30.06,South,185,1.0,-999.0,44,0.00,,,0.00,Wunderground v.1.15,2013-05-15 00:56:00,
2013-05-14 21:02:00,64.4,42.0,30.06,South,184,1.0,-999.0,44,0.00,,,0.00,Wunderground v.1.15,2013-05-15 01:02:00,
2013-05-14 21:08:00,64.1,42.3,30.06,SSW,213,1.0,-999.0,45,0.00,,,0.00,Wunderground v.1.15,2013-05-15 01:08:00,
2013-05-14 21:14:00,63.8,43.2,30.06,SSW,192,1.0,-999.0,47,0.00,,,0.00,Wunderground v.1.15,2013-05-15 01:14:00,
2013-05-14 21:19:00,63.6,42.4,30.06,SW,224,1.0,-999.0,46,0.00,,,0.00,Wunderground v.1.15,2013-05-15 01:19:00,
2013-05-14 21:25:00,63.4,42.2,30.06,South,169,1.0,-999.0,46,0.00,,,0.00,Wunderground v.1.15,2013-05-15 01:25:00,
2013-05-14 21:31:00,63.4,42.2,30.06,WSW,251,1.0,-999.0,46,0.00,,,0.00,Wunderground v.1.15,2013-05-15 01:31:00,
2013-05-14 21:37:00,63.5,42.3,30.06,WSW,256,2.0,-999.0,46,0.00,,,0.00,Wunderground v.1.15,2013-05-15 01:37:00,
2013-05-14 21:43:00,63.5,42.3,30.06,SSE,160,2.0,-999.0,46,0.00,,,0.00,Wunderground v.1.15,2013-05-15 01:43:00,
2013-05-14 21:49:00,63.2,42.1,30.06,SSW,205,1.0,-999.0,46,0.00,,,0.00,Wunderground v.1.15,2013-05-15 01:49:00,
2013-05-14 21:55:00,63.1,42.5,30.06,SW,217,2.0,-999.0,47,0.00,,,0.00,Wunderground v.1.15,2013-05-15 01:55:00,
2013-05-14 22:00:00,63.0,42.4,30.06,WSW,246,2.0,-999.0,47,0.00,,,0.00,Wunderground v.1.15,2013-05-15 02:00:00,
2013-05-14 22:06:00,62.8,42.8,30.06,WSW,254,2.0,-999.0,48,0.00,,,0.00,Wunderground v.1.15,2013-05-15 02:06:00,
2013-05-14 22:12:00,62.6,42.6,30.06,SSW,210,2.0,-999.0,48,0.00,,,0.00,Wunderground v.1.15,2013-05-15 02:12:00,
2013-05-14 22:18:00,62.3,42.9,30.06,SW,231,2.0,-999.0,49,0.00,,,0.00,Wunderground v.1.15,2013-05-15 02:18:00,
2013-05-14 22:24:00,62.2,42.8,30.06,South,178,2.0,-999.0,49,0.00,,,0.00,Wunderground v.1.15,2013-05-15 02:24:00,
2013-05-14 22:30:00,62.1,42.7,30.06,South,182,2.0,-999.0,49,0.00,,,0.00,Wunderground v.1.15,2013-05-15 02:30:00,
2013-05-14 22:35:00,62.1,42.7,30.06,South,175,2.0,-999.0,49,0.00,,,0.00,Wunderground v.1.15,2013-05-15 02:35:00,
2013-05-14 22:40:00,62.1,42.7,30.06,SSW,204,3.0,-999.0,49,0.00,,,0.00,Wunderground v.1.15,2013-05-15 02:40:00,
2013-05-14 22:46:00,62.0,42.6,30.06,WSW,245,2.0,-999.0,49,0.00,,,0.00,Wunderground v.1.15,2013-05-15 02:46:00,
2013-05-14 22:52:00,61.9,42.5,30.06,West,267,2.0,-999.0,49,0.00,,,0.00,Wunderground v.1.15,2013-05-15 02:52:00,
2013-05-14 22:58:00,61.8,43.0,30.06,NW,325,2.0,-999.0,50,0.00,,,0.00,Wunderground v.1.15,2013-05-15 02:58:00,
2013-05-14 23:03:00,61.8,43.0,30.05,South,189,2.0,-999.0,50,0.00,,,0.00,Wunderground v.1.15,2013-05-15 03:03:00,
2013-05-14 23:09:00,61.7,42.9,30.05,SSW,194,2.0,-999.0,50,0.00,,,0.00,Wunderground v.1.15,2013-05-15 03:09:00,
2013-05-14 23:15:00,61.6,42.8,30.05,South,188,2.0,-999.0,50,0.00,,,0.00,Wunderground v.1.15,2013-05-15 03:15:00,
2013-05-14 23:21:00,61.4,43.1,30.05,WSW,245,2.0,-999.0,51,0.00,,,0.00,Wunderground v.1.15,2013-05-15 03:21:00,
2013-05-14 23:26:00,61.4,43.1,30.05,South,184,2.0,-999.0,51,0.00,,,0.00,Wunderground v.1.15,2013-05-15 03:26:00,
2013-05-14 23:32:00,61.4,43.1,30.04,West,269,2.0,-999.0,51,0.00,,,0.00,Wunderground v.1.15,2013-05-15 03:32:00,
2013-05-14 23:38:00,61.3,43.0,30.04,West,279,2.0,-999.0,51,0.00,,,0.00,Wunderground v.1.15,2013-05-15 03:38:00,
2013-05-14 23:44:00,61.3,43.0,30.04,West,263,2.0,-999.0,51,0.00,,,0.00,Wunderground v.1.15,2013-05-15 03:44:00,
2013-05-14 23:49:00,61.3,43.0,30.04,WSW,244,2.0,-999.0,51,0.00,,,0.00,Wunderground v.1.15,2013-05-15 03:49:00,
2013-05-14 23:55:00,61.1,42.8,30.04,SSE,159,2.0,-999.0,51,0.00,,,0.00,Wunderground v.1.15,2013-05-15 03:55:00,